Location: ??? ???
(33.4974°N, 35.4618°E)
Time: 17:02:54
(UTC+00:00)

Envisat - Pass Details

Date: 29 October 2020
Orbit: 764 x 766 km, 98.1° (Epoch: 30 November)

Event Time Altitude Azimuth Distance (km) Brightness Sun altitude
Rises 15:17:16 0° 181° (S) 3,216 6.4 -6.6°
Reaches altitude 10° 15:19:38 10° 187° (S) 2,294 5.7 -7.1°
Maximum altitude 15:24:29 47° 261° (W) 1,013 4.3 -8.1°
Drops below altitude 10° 15:29:23 10° 334° (NNW) 2,307 5.7 -9.1°
Sets 15:31:47 0° 341° (NNW) 3,237 6.4 -9.6°
